This demonstration page uses our WeatherBlox Daily Observations layout. Learn more.

Left ArrowRight Arrow

Hourly Observations for February 16, 2018

Temp ( °F °C ) Dew Point ( °F °C ) Humidity (%) Winds ( mph kmh ) Pressure ( in mb ) Visibility ( mi km ) Precip ( " mm )
12:15 am 00:15 Cloudy 64 18 59 15 83 83 N 5 7 29.68 1005 10 16.0934 0 0
12:35 am 00:35 Cloudy 64 18 59 15 83 83 NNE 7 11 29.68 1005 10 16.0934 0 0
12:55 am 00:55 Cloudy 63 17 59 15 88 88 Calm 29.65 1004 10 16.0934 0 0
1:15 am 01:15 Cloudy 61 16 59 15 94 94 Calm 29.65 1004 10 16.0934 0 0
1:35 am 01:35 Cloudy 63 17 59 15 88 88 N 8 13 29.68 1005 10 16.0934 0 0
1:55 am 01:55 Cloudy 63 17 59 15 88 88 N 7 11 29.68 1005 10 16.0934 0 0
2:15 am 02:15 Cloudy 63 17 59 15 88 88 Calm 29.65 1004 10 16.0934 0 0
2:35 am 02:35 Cloudy 63 17 59 15 88 88 Calm 29.68 1005 10 16.0934 0 0
2:55 am 02:55 Cloudy with Light Rain 61 16 59 15 94 94 ENE 3 6 29.65 1004 10 16.0934 0 0
3:15 am 03:15 Cloudy with Heavy Rain 61 16 59 15 94 94 NNE 7 11 29.68 1005 7 11.26538 0 0
3:35 am 03:35 Cloudy with Light Rain 63 17 61 16 94 94 N 9 15 29.68 1005 10 16.0934 0 0
3:55 am 03:55 Cloudy with Light Rain 61 16 59 15 94 94 NW 6 9 29.68 1005 10 16.0934 0 0
4:15 am 04:15 Cloudy with Light Rain 59 15 59 15 100 100 W 7 11 29.68 1005 10 16.0934 0 0
4:35 am 04:35 Cloudy with Light Rain 59 15 59 15 100 100 W 8 13 29.68 1005 10 16.0934 0 0
4:55 am 04:55 Cloudy with Light Rain 59 15 59 15 100 100 WNW 10 17 29.68 1005 10 16.0934 0 0
5:15 am 05:15 Cloudy with Drizzle 59 15 59 15 100 100 WNW 8 13 29.71 1006 10 16.0934 0 0
5:35 am 05:35 Cloudy with Light Rain 59 15 59 15 100 100 WNW 9 15 29.71 1006 10 16.0934 0 0
5:55 am 05:55 Cloudy with Drizzle 59 15 57 14 94 94 NNW 5 7 29.71 1006 10 16.0934 0 0
6:15 am 06:15 Cloudy with Light Rain 59 15 57 14 94 94 NW 5 7 29.71 1006 10 16.0934 0 0
6:35 am 06:35 Cloudy 59 15 57 14 94 94 Calm 29.71 1006 10 16.0934 0 0
6:55 am 06:55 Cloudy 59 15 57 14 94 94 W 3 6 29.74 1007 10 16.0934 0 0
7:15 am 07:15 Cloudy 59 15 55 13 88 88 undefined N/A 29.74 1007 10 16.0934 0 0
7:35 am 07:35 Cloudy 59 15 55 13 88 88 SW 3 6 29.74 1007 10 16.0934 0 0
7:55 am 07:55 Cloudy 59 15 55 13 88 88 WNW 7 11 29.74 1007 10 16.0934 0 0
8:15 am 08:15 Cloudy 59 15 55 13 88 88 W 3 6 29.74 1007 10 16.0934 0 0
8:35 am 08:35 Cloudy 61 16 54 12 77 77 WNW 15 24 29.77 1008 10 16.0934 0 0
8:55 am 08:55 Cloudy 59 15 54 12 82 82 WNW 5 7 29.77 1008 10 16.0934 0 0
9:15 am 09:15 Cloudy with Light Rain 61 16 54 12 77 77 WSW 3 6 29.77 1008 10 16.0934 0 0
9:35 am 09:35 Cloudy with Light Rain 61 16 55 13 83 83 WSW 3 6 29.77 1008 10 16.0934 0 0
9:55 am 09:55 Cloudy with Drizzle 61 16 54 12 77 77 SW 6 9 29.74 1007 10 16.0934 0 0
10:15 am 10:15 Mostly Cloudy 61 16 55 13 83 83 SSW 6 9 29.74 1007 10 16.0934 0 0
10:35 am 10:35 Cloudy 61 16 54 12 77 77 W 3 6 29.74 1007 10 16.0934 0 0
10:55 am 10:55 Cloudy 61 16 54 12 77 77 WSW 3 6 29.74 1007 10 16.0934 0 0
11:15 am 11:15 Cloudy 61 16 54 12 77 77 Calm 29.74 1007 10 16.0934 0 0
11:35 am 11:35 Cloudy with Light Rain 61 16 54 12 77 77 W 5 7 29.74 1007 10 16.0934 0 0
11:55 am 11:55 Cloudy with Light Rain 61 16 55 13 83 83 W 5 7 29.74 1007 10 16.0934 0 0
12:15 pm 12:15 Cloudy with Light Rain 61 16 55 13 83 83 W 7 11 29.77 1008 10 16.0934 0 0
12:35 pm 12:35 Cloudy with Light Rain 63 17 57 14 83 83 W 6 9 29.77 1008 10 16.0934 0 0
12:55 pm 12:55 Cloudy with Light Rain 63 17 57 14 83 83 WNW 9 15 29.77 1008 10 16.0934 0 0
1:15 pm 13:15 Cloudy with Light Rain 57 14 54 12 88 88 N 20 31 29.8 1009 5 8.0467 0 0
1:35 pm 13:35 Cloudy 55 13 52 11 88 88 NNW 13 20 29.8 1009 10 16.0934 0 0
1:55 pm 13:55 Cloudy with Light Rain 55 13 52 11 88 88 NNW 20 31 29.83 1010 10 16.0934 0 0
2:15 pm 14:15 Cloudy with Light Rain 54 12 50 10 88 88 NNW 14 22 29.83 1010 10 16.0934 0 0
2:35 pm 14:35 Cloudy with Light Rain 54 12 46 8 77 77 NNW 20 31 29.85 1011 10 16.0934 0 0
2:55 pm 14:55 Cloudy with Light Rain 54 12 46 8 77 77 N 12 19 29.88 1012 10 16.0934 0 0
3:15 pm 15:15 Mostly Cloudy 54 12 45 7 72 72 N 6 9 29.88 1012 10 16.0934 0 0
3:35 pm 15:35 Partly Cloudy 54 12 46 8 77 77 NW 10 17 29.88 1012 10 16.0934 0 0
3:55 pm 15:55 Mostly Cloudy 54 12 45 7 72 72 NW 13 20 29.88 1012 10 16.0934 0 0
4:15 pm 16:15 Partly Cloudy 54 12 45 7 72 72 NW 12 19 29.91 1013 10 16.0934 0 0
4:35 pm 16:35 Partly Cloudy 54 12 45 7 72 72 NW 17 28 29.91 1013 10 16.0934 0 0
4:55 pm 16:55 Cloudy 52 11 45 7 77 77 NNW 20 31 29.94 1014 10 16.0934 0 0
5:15 pm 17:15 Cloudy 52 11 43 6 72 72 NNW 20 31 29.94 1014 10 16.0934 0 0
5:35 pm 17:35 Partly Cloudy 50 10 41 5 71 71 NNW 18 30 29.97 1015 10 16.0934 0 0
5:55 pm 17:55 Clear 50 10 39 4 67 67 NNW 23 37 30 1016 10 16.0934 0 0
6:15 pm 18:15 Clear 46 8 37 3 71 71 NNW 21 33 30.03 1017 10 16.0934 0 0
6:35 pm 18:35 Clear 46 8 34 1 62 62 NNW 20 31 30.06 1018 10 16.0934 0 0
6:55 pm 18:55 Clear 45 7 34 1 66 66 NNW 15 24 30.09 1019 10 16.0934 0 0
7:15 pm 19:15 Clear 45 7 34 1 66 66 NNW 14 22 30.12 1020 10 16.0934 0 0
7:35 pm 19:35 Partly Cloudy 43 6 34 1 71 71 NW 13 20 30.15 1021 10 16.0934 0 0
7:55 pm 19:55 Cloudy 45 7 34 1 66 66 NNW 15 24 30.18 1022 10 16.0934 0 0
8:15 pm 20:15 Mostly Cloudy 43 6 32 0 66 66 N 7 11 30.18 1022 10 16.0934 0 0
8:35 pm 20:35 Mostly Cloudy 43 6 32 0 66 66 NNW 10 17 30.21 1023 10 16.0934 0 0
8:55 pm 20:55 Mostly Cloudy 41 5 30 -1 66 66 N 12 19 30.24 1024 10 16.0934 0 0
9:15 pm 21:15 Partly Cloudy 41 5 30 -1 66 66 NNW 15 24 30.24 1024 10 16.0934 0 0
9:35 pm 21:35 Clear 39 4 30 -1 70 70 NNW 10 17 30.24 1024 10 16.0934 0 0
9:55 pm 21:55 Partly Cloudy 39 4 30 -1 70 70 NNW 9 15 30.27 1025 10 16.0934 0 0
10:15 pm 22:15 Partly Cloudy 37 3 30 -1 75 75 NNW 9 15 30.27 1025 10 16.0934 0 0
10:35 pm 22:35 Partly Cloudy 37 3 30 -1 75 75 Calm 30.3 1026 10 16.0934 0 0
10:55 pm 22:55 Partly Cloudy 37 3 30 -1 75 75 NNW 10 17 30.27 1025 10 16.0934 0 0
11:15 pm 23:15 Clear 37 3 30 -1 75 75 Calm 30.3 1026 10 16.0934 0 0
11:35 pm 23:35 Clear 36 2 30 -1 81 81 N 9 15 30.3 1026 10 16.0934 0 0
11:55 pm 23:55 Clear 36 2 28 -2 75 75 NNW 7 11 30.3 1026 10 16.0934 0 0

Powered by AerisWeather